Flag for Canada Weather past 2 weeks in St. John's, Newfoundland and Labrador, Canada

34 °F


Feels Like: 23 °F
Forecast: 32 / 37 °F
Wind: 16 mph from Northwest

Location: St. John's

Current Time: Nov 25, 2015 at 1:03:40 PM

Latest Report: Nov 25, 2015 at 12:30 PM

Visibility: 15 mi

Pressure: 30.32 "Hg

Humidity: 60%

Dew point: 21 °F

Location of St. John'sLocation

Historic Weather in St. John's — Graph


St. John's temperature yesterday

Maximum temperature yesterday: 50 °F (at 1:30 PM)
Minimum temperature yesterday: 36 °F (at 9:30 PM)
Average temperature yesterday: 43 °F

Past Weeks' High & Low Weather Summary

High50 °F (Nov 24, 1:30 PM)100% (Nov 14, 8:30 AM)30.66 "Hg (Nov 14, 8:30 AM)
Low27 °F (Nov 11, 6:30 PM)56% (Nov 25, 11:30 AM)29.31 "Hg (Nov 15, 3:30 AM)
Average35 °F88%30.05 "Hg
* Reported Nov 10 11:30 AM — Nov 25 11:30 AM, St. John's, Weather by CustomWeather, © 2015

Note: Actual official high and low records may vary slightly from our data, if they occured in-between our weather recording intervals... More about our weather records


St. John's weather history for previous 24 hours

Time TempWeatherWind HumidityBarometerVisibility
11:30 AM
Wed, Nov 25
34 °FScattered clouds.21 mph56%30.31 "Hg15 mi
10:30 AM34 °FScattered clouds.18 mph60%30.30 "Hg15 mi
9:30 AM34 °FScattered clouds.18 mph60%30.28 "Hg15 mi
9:17 AM34 °FScattered clouds.10 mph60%30.27 "Hg15 mi
8:30 AM32 °FPartly sunny.8 mph64%30.25 "Hg15 mi
7:30 AM32 °FPartly sunny.13 mph64%30.22 "Hg15 mi
6:30 AM34 °FOvercast.10 mph65%30.19 "Hg15 mi
5:30 AM32 °FOvercast.8 mph69%30.15 "Hg15 mi
4:30 AM32 °FPassing clouds.8 mph69%30.14 "Hg15 mi
3:30 AM32 °FPassing clouds.9 mph69%30.11 "Hg15 mi
2:30 AM34 °FPassing clouds.10 mph75%30.09 "Hg15 mi
1:30 AM36 °FMostly cloudy.10 mph75%30.05 "Hg15 mi
12:30 AM36 °FPassing clouds.12 mph75%30.02 "Hg15 mi
11:30 PM
Tue, Nov 24
36 °FOvercast.15 mph75%30.00 "Hg15 mi
10:30 PM36 °FPassing clouds.18 mph87%29.97 "Hg15 mi
9:30 PM36 °FPartly cloudy.16 mph87%29.95 "Hg14 mi
8:30 PM37 °FPassing clouds.16 mph87%29.93 "Hg15 mi
7:30 PM39 °FOvercast.14 mph87%29.90 "Hg15 mi
6:30 PM39 °FOvercast.17 mph87%29.87 "Hg15 mi
5:30 PM41 °FMostly cloudy.15 mph87%29.84 "Hg15 mi
4:30 PM41 °FMostly cloudy.20 mph93%29.81 "Hg15 mi
3:30 PM43 °FMore clouds than sun.17 mph87%29.79 "Hg15 mi
3:23 PM43 °FMore clouds than sun.15 mph93%29.79 "Hg15 mi
2:30 PM46 °FLight rain. Low clouds.15 mph93%29.77 "Hg12 mi
1:30 PM50 °FLow clouds.10 mph94%29.75 "Hg8 mi
Weather by CustomWeather, © 2015

See weather overviewHow to use our weather pages